Location: Holiday Acres Laynes 2 Mobile Home Park
(26.7249°N, 81.8671°W)
Time: 06:47:34
(UTC+00:00)

Cosmos 1125 Rocket - Pass Details

Date: 25 November 2020
Orbit: 757 x 780 km, 74.0° (Epoch: 21 January)

Event Time Altitude Azimuth Distance (km) Brightness Sun altitude
Rises 23:16:37 0° 345° (NNW) 3,216 6.7 -9.7°
Reaches altitude 10° 23:18:59 10° 346° (NNW) 2,290 5.9 -10.2°
Maximum altitude 23:24:11 87° 76° (ENE) 766 3.5 -11.3°
Drops below altitude 10° 23:29:24 10° 165° (SSE) 2,292 6.0 -12.4°
Sets 23:31:46 0° 165° (SSE) 3,219 6.8 -12.9°
